(285368) = 1999 TW70 = 2006 SC294

Discovered at Kitt Peak on 1999-10-09 by Spacewatch.

Orbit

Orbit type: Main Belt

Note: WebGL enabled browser required.

epoch2023-02-25.0
epoch JD2460000.5
perihelion date2020-06-27.99245
perihelion JD2459028.49245
argument of perihelion (°)90.77075
ascending node (°)207.74056
inclination (°)3.79592
eccentricity0.1565927
perihelion distance (AU)1.9694715
Tisserand w.r.t. Jupiter3.5
ΔV w.r.t. Earth (km/sec)8.8
semimajor axis (AU)2.3351369
mean anomaly (°)268.47569
mean daily motion (°/day)0.27620740
aphelion distance (AU)2.701
period (years)3.57
P-vector [x]0.47631112
P-vector [y]-0.83076283
P-vector [z]-0.28802924
Q-vector [x]0.87873667
Q-vector [y]0.43827398
Q-vector [z]0.18904439
absolute magnitude17.86
phase slope0.15
uncertainty0
referenceMPO 745323
observations used245
oppositions13
arc length (days)8618
first opposition used1999
last opposition used2023
residual rms (arc-secs)0.64
perturbers coarse indicatorM-v
perturbers precise indicator003Ek
first observation date used1999-10-09.0
last observation date used2023-05-14.0
computer nameMPCLINUX
JD of orbit computation2456581.501466
perihelion JD uncertainty (days)1.0184E-04
argument of perihelion uncertainty (°)7.8329E-05
ascending node uncertainty (°)7.1281E-05
inclination uncertainty (°)7.0069E-06
eccentricity uncertainty 5.5872E-08
perihelion distance uncertainty (AU)1.3646E-07
Minimum Orbit Intersection Distances (in AU)
for orbit epoch: 2460000.5, reference: E2023-JF5
Mercury1.52907
Venus1.24779
Earth0.95734
Mars0.56172
Jupiter2.49096
Saturn6.39684
Uranus15.8425
Neptune27.418

Observations

252 total observations over interval: 1999 10 09.39624 – 2023 05 14.300763
These data are available for download (format description).

Date (UT) J2000 RA J2000 Dec Magn Location Ref
1999 10 09.39624 02 01 21.82 +12 42 09.6 20.2 V 691 – Steward Observatory, Kitt Peak-Spacewatch MPS 13726
1999 10 09.41805 02 01 20.61 +12 42 00.8 19.7 V 691 – Steward Observatory, Kitt Peak-Spacewatch MPS 13726
1999 10 09.44009 02 01 19.40 +12 41 51.6 19.9 V 691 – Steward Observatory, Kitt Peak-Spacewatch MPS 13726
1999 10 12.36227 01 58 41.17 +12 21 24.7 20.0 V 691 – Steward Observatory, Kitt Peak-Spacewatch MPS 13726
1999 10 12.38415 01 58 39.91 +12 21 15.4 20.2 V 691 – Steward Observatory, Kitt Peak-Spacewatch MPS 13726
1999 10 12.40665 01 58 38.61 +12 21 05.6 19.9 V 691 – Steward Observatory, Kitt Peak-Spacewatch MPS 13726
1999 10 19.32781 01 52 05.08 +11 30 18.5 20.6 V 691 – Steward Observatory, Kitt Peak-Spacewatch MPS 27562
1999 10 19.35107 01 52 03.71 +11 30 08.3 20.5 V 691 – Steward Observatory, Kitt Peak-Spacewatch MPS 27562
1999 10 19.37254 01 52 02.40 +11 29 58.6 20.3 V 691 – Steward Observatory, Kitt Peak-Spacewatch MPS 27562
2005 03 13.26280 12 04 11.90 -03 49 58.1 21.2 V 691 – Steward Observatory, Kitt Peak-Spacewatch MPS 185191
2005 03 13.29772 12 04 09.97 -03 49 43.8 20.9 V 691 – Steward Observatory, Kitt Peak-Spacewatch MPS 185191
2005 03 13.32532 12 04 08.46 -03 49 32.5 20.9 V 691 – Steward Observatory, Kitt Peak-Spacewatch MPS 185191
2006 09 17.28465 00 37 51.12 +07 14 44.4 21.2 V 691 – Steward Observatory, Kitt Peak-Spacewatch MPS 185191
2006 09 17.30205 00 37 50.22 +07 14 37.0 20.7 V 691 – Steward Observatory, Kitt Peak-Spacewatch MPS 185191
2006 09 17.31938 00 37 49.33 +07 14 30.0 20.6 V 691 – Steward Observatory, Kitt Peak-Spacewatch MPS 185191
2006 09 25.21192 00 31 06.58 +06 14 35.1 20.1 V 691 – Steward Observatory, Kitt Peak-Spacewatch MPS 182990
2006 09 25.22935 00 31 05.63 +06 14 26.6 20.1 V 691 – Steward Observatory, Kitt Peak-Spacewatch MPS 182990
2006 09 25.24676 00 31 04.65 +06 14 18.3 20.2 V 691 – Steward Observatory, Kitt Peak-Spacewatch MPS 182990
2006 10 02.16840 00 24 56.43 +05 17 47.8   691 – Steward Observatory, Kitt Peak-Spacewatch MPS 182990
2006 10 02.18576 00 24 55.48 +05 17 39.5   691 – Steward Observatory, Kitt Peak-Spacewatch MPS 182990
2006 10 02.20313 00 24 54.52 +05 17 30.7   691 – Steward Observatory, Kitt Peak-Spacewatch MPS 182990
2006 10 21.15631 00 10 37.18 +02 53 08.8 20.2 R 644 – Palomar Mountain/NEAT MPS 185585
2006 10 21.17977 00 10 36.35 +02 52 59.7 20.1 R 644 – Palomar Mountain/NEAT MPS 185585
2006 10 21.20148 00 10 35.55 +02 52 51.0 20.4 R 644 – Palomar Mountain/NEAT MPS 185585
2006 10 22.24082 00 10 01.02 +02 46 14.7 20.6 V G96 – Mt. Lemmon Survey MPS 185585
2006 10 22.25021 00 10 00.69 +02 46 11.2 20.8 V G96 – Mt. Lemmon Survey MPS 185585
2006 10 22.25953 00 10 00.37 +02 46 07.4 20.6 V G96 – Mt. Lemmon Survey MPS 185585
2006 10 22.26898 00 10 00.04 +02 46 04.2 20.9 V G96 – Mt. Lemmon Survey MPS 185585
2006 11 16.23700 00 05 29.46 +01 14 01.2 22.2   705 – Apache Point MPS 195413
2006 11 16.24032 00 05 29.48 +01 14 01.0 21.3 V 705 – Apache Point MPS 195413
2006 11 19.23593 00 06 09.56 +01 11 56.0 22.0   705 – Apache Point MPS 195413
2006 11 19.23925 00 06 09.60 +01 11 56.0 21.2 V 705 – Apache Point MPS 195413
2006 11 24.22763 00 07 48.78 +01 12 34.0 23.6   705 – Apache Point MPS 195413
2006 11 24.22846 00 07 48.79 +01 12 34.2 22.4 V 705 – Apache Point MPS 195413
2008 01 10.36977 08 27 35.96 +13 05 15.8 21.9 V G96 – Mt. Lemmon Survey MPS 276431
2008 01 10.37694 08 27 35.53 +13 05 16.0 21.1 V G96 – Mt. Lemmon Survey MPS 276431
2008 01 10.38407 08 27 35.06 +13 05 17.9 22.5 V G96 – Mt. Lemmon Survey MPS 276431
2008 01 10.39121 08 27 34.74 +13 05 18.9 21.1 V G96 – Mt. Lemmon Survey MPS 276431
2009 05 29.30602 16 18 37.62 -16 40 58.2 19.4 V G96 – Mt. Lemmon Survey MPS 287929
2009 05 29.31146 16 18 37.29 -16 40 56.8 19.6 V G96 – Mt. Lemmon Survey MPS 287929
2009 05 29.31704 16 18 36.90 -16 40 55.0 19.3 V G96 – Mt. Lemmon Survey MPS 287929
2009 05 29.32262 16 18 36.68 -16 40 54.2 19.1 V G96 – Mt. Lemmon Survey MPS 287929
2009 06 03.22830 16 13 53.00 -16 18 44.7 19.8 V G96 – Mt. Lemmon Survey MPS 287929
2009 06 03.23517 16 13 52.53 -16 18 42.5 19.7 V G96 – Mt. Lemmon Survey MPS 287929
2009 06 03.24181 16 13 52.17 -16 18 41.2 19.5 V G96 – Mt. Lemmon Survey MPS 287929
2009 06 03.24861 16 13 51.74 -16 18 39.3 19.3 V G96 – Mt. Lemmon Survey MPS 287929
2012 02 16.57380 11 15 20.298 +00 04 19.60 21.4 i F51 – Pan-STARRS 1, Haleakala MPS 414078
2012 02 16.58443 11 15 19.795 +00 04 22.95 21.3 i F51 – Pan-STARRS 1, Haleakala MPS 414078
2012 03 15.27104 10 50 27.13 +03 02 46.2 20.7 V G96 – Mt. Lemmon Survey MPS 417129
2012 03 15.27907 10 50 26.70 +03 02 49.7 20.6 V G96 – Mt. Lemmon Survey MPS 417129
2012 03 15.28714 10 50 26.26 +03 02 53.4 20.9 V G96 – Mt. Lemmon Survey MPS 417129
2012 03 15.29521 10 50 25.80 +03 02 56.8 20.7 V G96 – Mt. Lemmon Survey MPS 417129
2012 03 19.34289 10 46 52.308 +03 31 32.58 21.9 w F51 – Pan-STARRS 1, Haleakala MPS 418349
2012 03 19.35683 10 46 51.568 +03 31 38.19 21.7 w F51 – Pan-STARRS 1, Haleakala MPS 418349
2012 03 19.37082 10 46 50.820 +03 31 44.27 21.9 w F51 – Pan-STARRS 1, Haleakala MPS 418349
2013 08 15.49667 23 05 58.936 +00 26 39.76 20.6 w F51 – Pan-STARRS 1, Haleakala MPS 474295
2013 08 15.51222 23 05 58.314 +00 26 35.71 20.5 w F51 – Pan-STARRS 1, Haleakala MPS 474295
2013 08 15.52778 23 05 57.683 +00 26 31.58 20.5 w F51 – Pan-STARRS 1, Haleakala MPS 474295
2013 08 15.54330 23 05 57.060 +00 26 27.48 20.5 w F51 – Pan-STARRS 1, Haleakala MPS 474295
2013 08 28.33897 22 56 31.57 -00 46 23.7 19.4 V 703 – Catalina Sky Survey MPS 474826
2013 08 28.34671 22 56 31.16 -00 46 28.1 19.4 V 703 – Catalina Sky Survey MPS 474826
2013 08 28.35444 22 56 30.74 -00 46 31.1 19.2 V 703 – Catalina Sky Survey MPS 474826
2013 08 28.36227 22 56 30.31 -00 46 33.4 19.5 V 703 – Catalina Sky Survey MPS 474826
2013 09 03.41739 22 51 25.490 -01 29 54.45 19.5 w F51 – Pan-STARRS 1, Haleakala MPS 476040
2013 09 03.43227 22 51 24.685 -01 30 01.07 19.7 w F51 – Pan-STARRS 1, Haleakala MPS 476040
2013 09 03.44716 22 51 23.877 -01 30 07.71 19.6 w F51 – Pan-STARRS 1, Haleakala MPS 476040
2013 09 03.46207 22 51 23.073 -01 30 14.40 19.8 w F51 – Pan-STARRS 1, Haleakala MPS 476040
2013 09 13.32665 22 43 19.12 -02 45 37.4 19.4 V 703 – Catalina Sky Survey MPS 477576
2013 09 13.33336 22 43 18.84 -02 45 37.3 19.1 V 703 – Catalina Sky Survey MPS 477576
2013 09 13.34013 22 43 18.57 -02 45 43.0 20.5 V 703 – Catalina Sky Survey MPS 477576
2013 09 13.34679 22 43 18.23 -02 45 44.8 19.4 V 703 – Catalina Sky Survey MPS 477576
2013 09 27.30234 22 34 34.555 -04 24 37.71 20.6 w F51 – Pan-STARRS 1, Haleakala MPS 478632
2013 09 27.31654 22 34 34.122 -04 24 43.14 20.7 w F51 – Pan-STARRS 1, Haleakala MPS 478632
2013 09 27.33078 22 34 33.695 -04 24 48.41 20.5 w F51 – Pan-STARRS 1, Haleakala MPS 478632
2013 09 27.34503 22 34 33.258 -04 24 53.93 20.9 w F51 – Pan-STARRS 1, Haleakala MPS 478632
2015 01 13.34180 07 21 18.746 +16 09 19.28 21.3 w F51 – Pan-STARRS 1, Haleakala MPS 562293
2015 01 13.35538 07 21 17.837 +16 09 20.91 21.3 w F51 – Pan-STARRS 1, Haleakala MPS 562293
2015 01 13.36889 07 21 16.953 +16 09 23.01 21.3 w F51 – Pan-STARRS 1, Haleakala MPS 562293
2016 03 04.60764 15 00 09.197 -17 19 41.72 21.4 w F51 – Pan-STARRS 1, Haleakala MPS 692189
2016 03 04.62041 15 00 09.562 -17 19 41.81 21.3 w F51 – Pan-STARRS 1, Haleakala MPS 692189
2016 03 04.63321 15 00 09.925 -17 19 42.36 21.4 w F51 – Pan-STARRS 1, Haleakala MPS 692189
2016 03 07.58668 15 01 33.604 -17 21 03.47 21.1 w F51 – Pan-STARRS 1, Haleakala MPS 692189
2016 03 07.59770 15 01 33.879 -17 21 03.56 21.4 w F51 – Pan-STARRS 1, Haleakala MPS 692189
2016 03 07.60869 15 01 34.136 -17 21 04.00 21.5 w F51 – Pan-STARRS 1, Haleakala MPS 692189
2016 03 07.61968 15 01 34.395 -17 21 04.34 21.6 w F51 – Pan-STARRS 1, Haleakala MPS 692189
2016 03 10.54519 15 02 43.051 -17 21 10.63 21.5 w F51 – Pan-STARRS 1, Haleakala MPS 692189
2016 03 10.55710 15 02 43.282 -17 21 10.60 21.8 w F51 – Pan-STARRS 1, Haleakala MPS 692189
2016 03 10.56905 15 02 43.489 -17 21 10.43 21.5 w F51 – Pan-STARRS 1, Haleakala MPS 692189
2016 03 10.58093 15 02 43.719 -17 21 10.11 21.7 w F51 – Pan-STARRS 1, Haleakala MPS 692189
